Regional Weather Roundup
Issued by NWS New Orleans/Baton Rouge, LA

Home | Current Version | Previous Version | Text Only | Print | Product List | Glossary On
Versions: 1 2 3 4 5 6 7 8 9 10 11 12 13 14 15 16 17 18 19 20 21 22 23 24 25 26 27
000
ASUS44 KLIX 172013
RWRLIX
NEW ORLEANS REGIONAL WEATHER ROUNDUP
NATIONAL WEATHER SERVICE NEW ORLEANS LA
200 PM CST WED JAN 17 2018

NOTE: "FAIR" INDICATES FEW OR NO CLOUDS BELOW 12,000 FEET WITH NO
      SIGNIFICANT WEATHER AND/OR OBSTRUCTIONS TO VISIBILITY.
      SKY/WX - SKY CONDITION AND SIGNIFICANT WEATHER.
      TMP - AIR TEMPERATURE.     DP    - DEWPOINT TEMPERATURE.
      RH  - RELATIVE HUMIDITY.   PRES  - PRESSURE.
      HI  - HEAT INDEX.          WCI   - WIND CHILL INDEX.

*  THESE STATIONS ARE NOT NWS OR FAA STATIONS AND ARE NOT UNDER
   NWS QUALITY CONTROL.

LAZ038-040-048-061>063-065>067-069-172100-
SOUTHEAST LOUISIANA

CITY           SKY/WX    TMP DP  RH WIND       PRES   REMARKS
N.O. INTL ARPT   N/A     32  15  49 N13G21    30.59F WCI  22
N.O. LAKEFRONT   N/A     34  16  47 N15       30.59F WCI  24
N.O. DOWNTOWN*   N/A     33  13  43 N10G17    30.59F WCI  25
RESERVE*         N/A     34  12  40 N14       30.59F WCI  25
SLIDELL          N/A     33  10  38 N16G24    30.57F WCI  23
BATON ROUGE      N/A     31  11  43 NW9       30.61F WCI  23
BOOTHVILLE       N/A     33  19  56 N14G22    30.55F WCI  23
BELLE CHASSE     N/A     33  16  49 N13G21    30.57F WCI  24
BOGALUSA*        N/A     34  14  44 N15G22    30.59F WCI  24
GALLIANO*        N/A     32  17  54 N13G18    30.57F WCI  22
NEW ROADS*       N/A     30  15  55 NW12      30.64S WCI  20
GONZALES*        N/A     32  12  43 N9        30.59F WCI  24
HAMMOND*         N/A     32  12  43 N17       30.59F WCI  21
HOUMA*         SUNNY     32  16  51 N16G23    30.57F WCI  21
PORT FOURCHON* CLEAR     32  18  55 N15       30.56F WCI  22

$$

MSZ070-080>082-172100-
SOUTHERN MISSISSIPPI

CITY           SKY/WX    TMP DP  RH WIND       PRES   REMARKS
MCCOMB           N/A     30   9  41 N14G29    30.59F WCI  19
GULFPORT         N/A     34  11  38 N9G23     30.54F WCI  27
BILOXI           N/A     33  10  37 N13       30.53F WCI  24
PASCAGOULA       N/A     34  11  38 N21G29    30.52F WCI  22

$$

COASTAL OBSERVATIONS
LAKE AND NEARSHORE STATIONS

STATION/POSITION TIME  TEMP    WIND        PRES    WAVE
                       AIR SEA DIR/SP/G            HT/PER
                 (UTC) (F)     (DEG/KT/KT) (MB)    (FT/S)
PASCAGOULA       1948   33      10/ 14/ 23 1033.3
WAVELAND YACHT   1948   31 42  350/ 16/ 20 1034.4
GRAND ISLE       1948   31 45   30/ 13/ 20 1034.7
SOUTHWEST PASS   1948   31 43   20/ 19/ 23 1034.8
NEW CANAL        1948   30 43  360/ 14/ 17 1035.4
SHELL BEACH      1948   29 47  350/ 14/ 19 1035.0

OFFSHORE STATIONS

STATION/POSITION TIME  TEMP    WIND        PRES    WAVE
                       AIR SEA DIR/SP/G            HT/PER
                 (UTC) (F)     (DEG/KT/KT) (MB)    (FT/S)
64 S DAUPHIN ISL 1950   37 71  360/ 19/ 23 1033.3    6/ 6

$$





USA.gov is the U.S. government's official web portal to all federal, state and local government web resources and services.